Other Surface Observations
Issued by NWS Upton, NY

Current Version | Previous Version | Text Only | Print | Product List | Glossary Off
Versions: 1 2 3 4 5 6 7 8 9 10 11 12 13 14 15 16 17 18 19 20 21 22 23 24 25 26 27 28 29 30 31 32 33 34 35 36 37 38 39 40 41 42 43 44 45 46 47 48 49 50

000
SXUS51 KOKX 160357
OSOOKX
New York City Metropolitan Area Weather Roundup
National Weather Service New York NY
1100 PM EST THU NOV 15 2018

CITY           SKY/WX    TMP DP  RH WIND       PRES   REMARKS
Central Park   LGT RAIN  38  36  92 MISG      29.88F
LaGuardia Arpt LGT RAIN  39  36  89 E29G39    29.86F WCI  27
Kennedy Intl   LGT RAIN  37  36  96 NE33G39   29.85F WCI  24
Newark Liberty CLOUDY    39  35  86 NE23G41   29.86F WCI  28
Teterboro Arpt LGT RAIN  35  33  92 NE8G24    29.88F FOG     WCI  29
Bronx Lehman C   N/A     34  32  93 E17         N/A  WCI  23
Queens College   N/A     37  36  93 NE21G38     N/A  WCI  27
Breezy Point     N/A     37 N/A N/A NE23G35     N/A  WCI  26
Brooklyn Coll    N/A     37  34  87 NE18G36     N/A  WCI  27
Staten Island    N/A     37  36  93 NE16        N/A  WCI  28

>>>>>>>>>>>>>>>>>>>>>>>>>>>>>>>>> KEY <<<<<<<<<<<<<<<<<<<<<<<<<<<<<<<
> SKY/WX - Sky Condition/Present    : R : WCI - Wind Chill Index    <
>          Weather                  : E : VSB - Visibility in Miles <
> TMP    - Temperature in Deg F     : M : HX  - Heat Index          <
> DP     - Dew Point Temperature    : A : TC  - Temperature in      <
> RH     - Relative Humidity        : R :       Celsius             <
> WIND   - Direction/Speed (mph)    : K : VRB - Variable Wind Dir   <
> PRES   - Pressure (in Hg)         : S :                           <
>>>>>>>>>>>>>>>>>>>>>>>>>>>>>>>>> KEY <<<<<<<<<<<<<<<<<<<<<<<<<<<<<<<




USA.gov is the U.S. government's official web portal to all federal, state and local government web resources and services.